When you browse on this site, cookies collect data to enhance your experience and personalize the content and advertising you see.
Visit our Privacy Policy to learn more. By continuing to use the site, you agree to this use of cookies and data.
  • In Romania
  • List of Countries
  • For 7 days
  • Water Temperature
  • Weather Map
  • Weather Widgets
  • user-avatar
    Login

    Hourly Weather Dansaj

    Today, 7 April, Tuesday

    Time Temperature Precipitation Wind Pressure Humidity
    00:00 +24°C° 0.1 mm 0 mps 703 mmHg 61%
    01:00 +23°C° 0 mm 0 mps 703 mmHg 70%
    02:00 +23°C° 0.7 mm 0 mps 703 mmHg 73%
    03:00 +23°C° 0.7 mm 0 mps 703 mmHg 76%
    04:00 +22°C° 0.7 mm 0 mps 702 mmHg 79%
    05:00 +22°C° 0.1 mm 0 mps 703 mmHg 78%
    06:00 +23°C° 0.1 mm 0 mps 703 mmHg 78%
    07:00 +24°C° 0 mm 0 mps 704 mmHg 75%
    08:00 +26°C° 0 mm 0 mps 705 mmHg 64%
    09:00 +31°C° 0 mm 1 mps 705 mmHg 52%
    10:00 +34°C° 0 mm 1 mps 706 mmHg 41%
    11:00 +36°C° 0 mm 2 mps 706 mmHg 36%
    12:00 +37°C° 0 mm 2 mps 705 mmHg 32%
    13:00 +38°C° 0 mm 2 mps 705 mmHg 26%
    14:00 +38°C° 0 mm 2 mps 704 mmHg 26%
    15:00 +38°C° 0 mm 2 mps 703 mmHg 26%
    16:00 +37°C° 0 mm 3 mps 702 mmHg 26%
    17:00 +35°C° 0 mm 2 mps 702 mmHg 31%
    18:00 +32°C° 0 mm 1 mps 702 mmHg 37%
    19:00 +30°C° 0 mm 1 mps 702 mmHg 43%
    20:00 +29°C° 0 mm 1 mps 703 mmHg 48%
    21:00 +28°C° 0 mm 1 mps 703 mmHg 53%
    22:00 +28°C° 0 mm 1 mps 704 mmHg 59%
    23:00 +27°C° 0 mm 1 mps 703 mmHg 63%

    Tomorrow, 8 April, Wednesday

    Time Temperature Precipitation Wind Pressure Humidity
    00:00 +26°C° 0 mm 1 mps 703 mmHg 67%
    01:00 +24°C° 0 mm 0 mps 703 mmHg 71%
    02:00 +24°C° 0 mm 0 mps 703 mmHg 72%
    03:00 +23°C° 0 mm 0 mps 703 mmHg 73%
    04:00 +23°C° 0 mm 0 mps 703 mmHg 74%
    05:00 +23°C° 0 mm 0 mps 703 mmHg 73%
    06:00 +23°C° 0 mm 0 mps 704 mmHg 72%
    07:00 +24°C° 0 mm 0 mps 704 mmHg 70%
    08:00 +29°C° 0 mm 1 mps 705 mmHg 60%
    09:00 +31°C° 0 mm 1 mps 706 mmHg 50%
    10:00 +34°C° 0 mm 1 mps 707 mmHg 40%
    11:00 +36°C° 0.1 mm 2 mps 707 mmHg 37%
    12:00 +36°C° 0.1 mm 2 mps 706 mmHg 34%
    13:00 +37°C° 0.1 mm 2 mps 705 mmHg 31%
    14:00 +35°C° 0.2 mm 2 mps 704 mmHg 36%
    15:00 +34°C° 0.2 mm 2 mps 703 mmHg 42%
    16:00 +31°C° 0.2 mm 2 mps 702 mmHg 47%
    17:00 +30°C° 0 mm 2 mps 703 mmHg 49%
    18:00 +29°C° 0 mm 2 mps 703 mmHg 51%
    19:00 +28°C° 0 mm 2 mps 703 mmHg 53%
    20:00 +27°C° 0 mm 1 mps 704 mmHg 59%
    21:00 +27°C° 0 mm 1 mps 704 mmHg 65%
    22:00 +26°C° 0 mm 1 mps 705 mmHg 71%
    23:00 +25°C° 0 mm 1 mps 704 mmHg 73%

    Day after tomorrow, 9 April, Thursday

    Time Temperature Precipitation Wind Pressure Humidity
    00:00 +25°C° 0 mm 1 mps 704 mmHg 75%
    01:00 +22°C° 0 mm 0 mps 704 mmHg 77%
    02:00 +22°C° 0 mm 0 mps 704 mmHg 76%
    03:00 +22°C° 0 mm 0 mps 704 mmHg 76%
    04:00 +22°C° 0 mm 0 mps 703 mmHg 76%
    05:00 +22°C° 0.4 mm 0 mps 704 mmHg 75%
    06:00 +22°C° 0.4 mm 0 mps 705 mmHg 75%
    07:00 +23°C° 0.4 mm 0 mps 705 mmHg 74%
    08:00 +26°C° 0.3 mm 0 mps 706 mmHg 63%
    09:00 +31°C° 0.3 mm 1 mps 707 mmHg 53%
    10:00 +34°C° 0.3 mm 1 mps 708 mmHg 42%
    11:00 +34°C° 0 mm 1 mps 707 mmHg 39%
    12:00 +36°C° 0 mm 2 mps 706 mmHg 36%
    13:00 +37°C° 0 mm 2 mps 706 mmHg 32%
    14:00 +35°C° 0.2 mm 2 mps 705 mmHg 39%
    15:00 +32°C° 0.2 mm 2 mps 704 mmHg 46%
    16:00 +30°C° 0.2 mm 2 mps 703 mmHg 53%
    17:00 +29°C° 0.4 mm 2 mps 703 mmHg 58%
    18:00 +28°C° 0.4 mm 2 mps 704 mmHg 63%
    19:00 +27°C° 0.4 mm 1 mps 704 mmHg 69%
    20:00 +26°C° 0.3 mm 1 mps 704 mmHg 70%
    21:00 +26°C° 0.3 mm 1 mps 705 mmHg 72%
    22:00 +25°C° 0.3 mm 1 mps 705 mmHg 74%
    23:00 +25°C° 0 mm 1 mps 705 mmHg 76%

    10 April, Friday

    Time Temperature Precipitation Wind Pressure Humidity
    00:00 +25°C° 0 mm 1 mps 705 mmHg 78%
    01:00 +22°C° 0 mm 0 mps 705 mmHg 80%
    02:00 +22°C° 0.7 mm 0 mps 705 mmHg 82%
    03:00 +21°C° 0.7 mm 0 mps 705 mmHg 84%
    04:00 +21°C° 0.7 mm 0 mps 704 mmHg 86%
    05:00 +21°C° 0.1 mm 0 mps 705 mmHg 84%
    06:00 +22°C° 0.1 mm 0 mps 705 mmHg 83%
    07:00 +22°C° 0.1 mm 0 mps 706 mmHg 81%
    08:00 +25°C° 0.3 mm 0 mps 707 mmHg 71%
    09:00 +30°C° 0.3 mm 1 mps 708 mmHg 60%
    10:00 +33°C° 0.3 mm 1 mps 708 mmHg 50%
    11:00 +33°C° 0.7 mm 1 mps 708 mmHg 46%
    12:00 +34°C° 0.7 mm 1 mps 707 mmHg 42%
    13:00 +35°C° 0.7 mm 1 mps 706 mmHg 38%
    14:00 +34°C° 0.2 mm 1 mps 706 mmHg 42%
    15:00 +32°C° 0.2 mm 2 mps 705 mmHg 47%
    16:00 +31°C° 0.2 mm 2 mps 704 mmHg 51%
    17:00 +30°C° 0.2 mm 2 mps 704 mmHg 56%
    18:00 +29°C° 0.2 mm 1 mps 704 mmHg 61%
    19:00 +27°C° 0.2 mm 1 mps 704 mmHg 66%
    20:00 +27°C° 0 mm 1 mps 704 mmHg 67%
    21:00 +27°C° 0 mm 1 mps 705 mmHg 67%
    22:00 +24°C° 0 mm 0 mps 705 mmHg 67%
    23:00 +24°C° 0 mm 0 mps 705 mmHg 68%

    11 April, Saturday

    Time Temperature Precipitation Wind Pressure Humidity
    00:00 +24°C° 0 mm 0 mps 705 mmHg 68%
    01:00 +24°C° 0 mm 0 mps 704 mmHg 69%
    02:00 +23°C° 0 mm 0 mps 704 mmHg 70%
    03:00 +23°C° 0 mm 0 mps 704 mmHg 72%
    04:00 +23°C° 0 mm 0 mps 704 mmHg 73%
    05:00 +23°C° 0 mm 0 mps 705 mmHg 73%
    06:00 +23°C° 0 mm 0 mps 705 mmHg 72%
    07:00 +24°C° 0 mm 0 mps 706 mmHg 72%
    08:00 +28°C° 0 mm 1 mps 706 mmHg 63%
    09:00 +30°C° 0 mm 1 mps 707 mmHg 55%
    10:00 +34°C° 0 mm 2 mps 707 mmHg 46%
    11:00 +35°C° 0 mm 2 mps 707 mmHg 41%
    12:00 +36°C° 0 mm 2 mps 706 mmHg 37%
    13:00 +38°C° 0 mm 2 mps 705 mmHg 32%
    14:00 +37°C° 0 mm 2 mps 705 mmHg 31%
    15:00 +37°C° 0 mm 2 mps 704 mmHg 31%
    16:00 +37°C° 0 mm 2 mps 703 mmHg 30%
    17:00 +35°C° 0 mm 2 mps 703 mmHg 35%
    18:00 +32°C° 0 mm 1 mps 703 mmHg 40%
    19:00 +30°C° 0 mm 1 mps 702 mmHg 45%
    20:00 +30°C° 0 mm 1 mps 703 mmHg 47%
    21:00 +29°C° 0 mm 1 mps 703 mmHg 49%
    22:00 +28°C° 0 mm 1 mps 704 mmHg 51%
    23:00 +26°C° 0 mm 0 mps 703 mmHg 52%

    12 April, Sunday

    Time Temperature Precipitation Wind Pressure Humidity
    00:00 +25°C° 0 mm 0 mps 703 mmHg 53%
    01:00 +25°C° 0 mm 0 mps 703 mmHg 55%
    02:00 +25°C° 0 mm 0 mps 703 mmHg 56%
    03:00 +24°C° 0 mm 0 mps 703 mmHg 58%
    04:00 +24°C° 0 mm 0 mps 703 mmHg 59%
    05:00 +24°C° 0 mm 0 mps 703 mmHg 60%
    06:00 +25°C° 0 mm 0 mps 704 mmHg 61%
    07:00 +25°C° 0 mm 0 mps 704 mmHg 61%
    08:00 +29°C° 0 mm 1 mps 705 mmHg 55%
    09:00 +32°C° 0 mm 1 mps 705 mmHg 49%
    10:00 +35°C° 0 mm 2 mps 706 mmHg 43%
    11:00 +36°C° 0 mm 2 mps 706 mmHg 38%
    12:00 +37°C° 0 mm 2 mps 705 mmHg 34%
    13:00 +39°C° 0 mm 2 mps 705 mmHg 30%
    14:00 +36°C° 0.6 mm 2 mps 704 mmHg 38%
    15:00 +34°C° 0.6 mm 2 mps 703 mmHg 45%
    16:00 +30°C° 0.6 mm 2 mps 702 mmHg 53%
    17:00 +29°C° 0.3 mm 2 mps 702 mmHg 57%
    18:00 +28°C° 0.3 mm 1 mps 702 mmHg 61%
    19:00 +27°C° 0.3 mm 1 mps 702 mmHg 65%
    20:00 +27°C° 0.1 mm 1 mps 703 mmHg 69%
    21:00 +26°C° 0.1 mm 2 mps 704 mmHg 74%
    22:00 +26°C° 0.1 mm 2 mps 705 mmHg 78%
    23:00 +25°C° 0 mm 2 mps 705 mmHg 80%
    Show more